[[{"header":{"parameterUnit":"m.s-1","parameterCategory":1,"la1":30.2992,"la2":30.254,"lo1":-89.0895,"lo2":-89.0443,"dy":0.0025,"dx":0.0025,"nx":19,"ny":19,"refTime":"2026-04-05T09:00:00:Z","depth":0,"parameterNumber":2,"parameterNumberName":"U-component_of_WINDS"},"data":[0,0,0,-4.0689,-4.0694,-4.0895,-4.0896,-4.1201,-4.1204,0,0,0,0,0,0,0,0,0,0,0,-4.0657,-4.066,-4.0688,-4.0694,-4.0895,-4.0896,-4.12,-4.1204,0,0,0,0,0,0,0,0,0,0,0,-4.0655,-4.0659,-4.0663,-4.0695,-4.0895,-4.0896,-4.12,-4.1031,0,0,0,0,0,0,0,0,0,0,-4.0828,-4.0825,-4.0658,-4.0663,-4.0696,-4.0895,-4.0896,-4.1022,-4.1042,-4.113,0,-4.1214,0,-4.1214,-4.1228,-4.1229,0,0,0,-4.0674,-4.0809,-4.0838,-4.0663,-4.0699,-4.0895,-4.0799,-4.1033,-4.1055,-4.1156,-4.1218,-4.1228,-4.1219,-4.123,-4.1232,-4.1803,-4.1806,0,0,-4.0663,-4.0708,-4.0823,-4.0853,-4.0823,-4.0793,-4.0805,-4.1045,-4.1117,-4.1219,-4.1234,-4.1224,-4.1232,-4.1235,-4.1799,-4.1804,0,0,0,-4.0645,-4.0702,-4.0723,-4.0842,-4.0874,-4.0799,-4.0814,-4.1106,-4.1109,-4.1237,-4.1228,-4.1234,-4.1238,-4.1795,-4.1801,-4.2026,0,0,0,-4.0637,-4.069,-4.072,-4.0749,-4.0871,-4.0992,-4.087,-4.1092,-4.1118,-4.1226,-4.1234,-4.1242,-4.1791,-4.1798,-4.2011,-4.2127,0,0,0,-4.0634,-4.0689,-4.0728,-4.0751,-4.0839,-4.0987,-4.1004,-4.1097,-4.1114,-4.1229,-4.1243,-4.1789,-4.1797,-4.1998,-4.2104,-4.2294,0,0,0,-4.0645,-4.0924,-4.0732,-4.104,-4.0838,-4.1123,-4.1002,-4.1212,-4.1337,-4.1236,-4.1792,-4.18,-4.1993,-4.2091,-4.228,-4.2465,-4.2545,0,0,-4.1022,-4.0971,-4.1148,-4.0982,-4.1314,-4.1088,-4.1452,-4.1525,-4.1494,-4.1702,-4.1716,-4.2016,-4.2103,-4.2291,-4.2965,-4.3029,0,0,0,-4.1283,-4.1413,-4.149,-4.1611,-4.1671,-4.1734,-4.1745,-4.1772,-4.1946,-4.161,-4.213,-4.2181,-4.2289,-4.2376,-4.2431,-4.2523,-4.1841,-4.184,-4.1839,-4.1887,-4.1831,-4.2123,-4.2093,-4.2211,-4.2219,-4.2312,-4.2349,-4.2259,-4.2383,-4.2447,-4.2863,-4.2966,-4.3006,-4.3104,-4.2535,-4.2535,-4.2536,-4.2537,-4.244,-4.2616,-4.2487,-4.2725,-4.2666,-4.2864,-4.2883,-4.2813,-4.2992,-4.281,-4.2903,-4.2715,-4.3078,-4.316,-4.2553,-4.255,-4.2548,-4.2547,-4.2546,-4.2835,-4.291,-4.2935,-4.3105,-4.3241,-4.3199,-4.3377,-4.3315,-4.3258,-4.3349,-4.3413,-4.3409,-4.3403,-4.3382,-4.3384,-4.3385,-4.3386,-4.3388,-4.3388,-4.3237,-4.3258,-4.3415,-4.3502,-4.3572,-4.3656,-4.3665,-4.3733,-4.3793,-4.3734,-4.3734,-4.3637,-4.3121,-4.2996,-4.3411,-4.3407,-4.3404,-4.3402,-4.34,-4.383,-4.3685,-4.3929,-4.3999,-4.4096,-4.4238,-4.4153,-4.4297,-4.4344,-4.4435,-4.4314,-4.394,-4.3885,-4.3842,-4.3739,-4.4321,-4.4321,-4.4321,-4.4321,-4.4169,-4.4132,-4.4367,-4.4484,-4.459,-4.4538,-4.4818,-4.4828,-4.4816,-4.4842,-4.4747,-4.4602,-4.456,-4.453,-4.4472,-4.4375,-4.5106,-4.5107,-4.5107,-4.4533,-4.4503,-4.4754,-4.4737,-4.4808,-4.4872,-4.5134,-4.5275,-4.523,-4.5138,-4.4863,-4.4829,-4.4595,-4.4521,-4.4431,-4.4341,-4.4162,0,0]},{"header":{"parameterUnit":"m.s-1","parameterCategory":1,"la1":30.2992,"la2":30.254,"lo1":-89.0895,"lo2":-89.0443,"dy":0.0025,"dx":0.0025,"nx":19,"ny":19,"refTime":"2026-04-05T09:00:00:Z","depth":0,"parameterNumber":3,"parameterNumberName":"V-component_of_WINDS"},"data":[0,0,0,-3.4526,-3.4527,-3.4548,-3.4548,-3.4586,-3.4586,0,0,0,0,0,0,0,0,0,0,0,-3.4528,-3.4529,-3.4526,-3.4527,-3.4548,-3.4548,-3.4586,-3.4586,0,0,0,0,0,0,0,0,0,0,0,-3.4528,-3.4529,-3.453,-3.4527,-3.4548,-3.4548,-3.4586,-3.4565,0,0,0,0,0,0,0,0,0,0,-3.4543,-3.4554,-3.4529,-3.453,-3.4527,-3.4548,-3.4548,-3.4564,-3.4567,-3.4581,0,-3.4599,0,-3.4593,-3.459,-3.459,0,0,0,-3.452,-3.4552,-3.455,-3.453,-3.4527,-3.4548,-3.4537,-3.4565,-3.4568,-3.4585,-3.4599,-3.46,-3.4594,-3.459,-3.459,-3.47,-3.47,0,0,-3.4519,-3.4537,-3.4548,-3.4552,-3.4552,-3.4536,-3.4537,-3.4567,-3.4583,-3.4599,-3.4601,-3.4594,-3.459,-3.4591,-3.4699,-3.47,0,0,0,-3.452,-3.4536,-3.4533,-3.4551,-3.4554,-3.4537,-3.4538,-3.4582,-3.4579,-3.4601,-3.4595,-3.4591,-3.4591,-3.4698,-3.4699,-3.4756,0,0,0,-3.4519,-3.4537,-3.4533,-3.4544,-3.4554,-3.4569,-3.4553,-3.4577,-3.458,-3.4595,-3.4591,-3.4592,-3.4697,-3.4699,-3.4753,-3.478,0,0,0,-3.4524,-3.4537,-3.4544,-3.4545,-3.4555,-3.4568,-3.4567,-3.4578,-3.4577,-3.459,-3.4592,-3.4696,-3.4698,-3.475,-3.4775,-3.4812,0,0,0,-3.4534,-3.4596,-3.4545,-3.461,-3.4555,-3.4604,-3.4567,-3.4602,-3.4621,-3.4591,-3.4697,-3.4699,-3.4749,-3.4771,-3.4808,-3.4845,-3.4862,0,0,-3.4621,-3.4607,-3.4644,-3.4599,-3.4661,-3.4599,-3.4669,-3.4669,-3.4654,-3.4685,-3.4687,-3.4754,-3.4774,-3.4811,-3.4957,-3.4971,0,0,0,-3.4677,-3.4703,-3.4716,-3.4735,-3.4736,-3.4738,-3.4725,-3.4724,-3.4749,-3.4674,-3.4778,-3.4789,-3.481,-3.4826,-3.4838,-3.4853,-3.4708,-3.4708,-3.4708,-3.4826,-3.4802,-3.486,-3.4838,-3.4856,-3.4841,-3.4852,-3.4848,-3.482,-3.4845,-3.4853,-3.4945,-3.4965,-3.4974,-3.499,-3.4872,-3.4872,-3.4873,-3.4873,-3.4949,-3.4981,-3.4941,-3.4982,-3.4956,-3.499,-3.4976,-3.4954,-3.498,-3.4938,-3.4954,-3.4908,-3.499,-3.5002,-3.4877,-3.4876,-3.4876,-3.4875,-3.4875,-3.5042,-3.5053,-3.5051,-3.5072,-3.5091,-3.5066,-3.5092,-3.5067,-3.5044,-3.5061,-3.5065,-3.5064,-3.5058,-3.5065,-3.5066,-3.5066,-3.5066,-3.5066,-3.5067,-3.5139,-3.5134,-3.516,-3.5164,-3.517,-3.5175,-3.5158,-3.5163,-3.5162,-3.5141,-3.5141,-3.5109,-3.5003,-3.4976,-3.5071,-3.5071,-3.507,-3.507,-3.5069,-3.5269,-3.5235,-3.5275,-3.5281,-3.5281,-3.5299,-3.5267,-3.5278,-3.5279,-3.5291,-3.5255,-3.5182,-3.5164,-3.5155,-3.5132,-3.5262,-3.5262,-3.5262,-3.5262,-3.5346,-3.5335,-3.5367,-3.5378,-3.5386,-3.536,-3.5401,-3.5387,-3.5367,-3.5365,-3.5343,-3.5311,-3.5302,-3.529,-3.5277,-3.5255,-3.5414,-3.5414,-3.5414,-3.5423,-3.5411,-3.5452,-3.5432,-3.543,-3.5427,-3.5464,-3.5476,-3.5447,-3.542,-3.5362,-3.5356,-3.5304,-3.5289,-3.526,-3.5241,-3.52,0,0]}]]